Regional Weather Roundup
Issued by NWS

Home | Current Version | Previous Version | Graphics & Text | Print | Product List | Glossary On
Versions: 1 2 3 4 5 6 7 8 9 10 11 12 13 14 15 16 17 18 19 20 21 22 23 24 25 26 27 28 29 30 31 32 33 34 35 36 37 38 39 40 41 42 43 44 45 46 47 48 49 50
000
ASUS43 KOAX 200510
RWRNE

WEATHER ROUNDUP FOR NEBRASKA
NATIONAL WEATHER SERVICE OMAHA NE
1200 AM CDT SAT SEP 20 2014

NOTES: SATELLITE DATA IS BEING USED TO AUGMENT CLOUD COVER ABOVE
       12000 FEET.
       "FAIR" INDICATES FEW OR NO CLOUDS BELOW 12,000 FEET WITH NO
       SIGNIFICANT WEATHER AND/OR OBSTRUCTIONS TO VISIBILITY.

  * THESE STATIONS DO NOT REPORT WEATHER SUCH AS RAIN...SNOW OR FOG.

NEZ001>004-019>022-054>056-200600-
NEBRASKA PANHANDLE

CITY           SKY/WX    TMP DP  RH WIND       PRES   REMARKS
SCOTTSBLUFF    CLEAR     62  51  67 CALM      29.97R
ALLIANCE       PTCLDY    62  51  67 NW3       29.96R
CHADRON        CLEAR     61  52  72 CALM      29.97R
KIMBALL        PTCLDY    61  52  72 SW3       30.00S
SIDNEY         MOCLDY    63  56  78 NW7       29.98S
$$

NEZ057>060-069>072-079>082-200600-
SOUTHWEST NEBRASKA

CITY           SKY/WX    TMP DP  RH WIND       PRES   REMARKS
NORTH PLATTE   CLOUDY    68  60  75 N3        29.87R
IMPERIAL       CLOUDY    73  60  63 SW10      29.90R
LEXINGTON      MOCLDY    75  60  59 S16       29.85S
MCCOOK         MOCLDY    74  58  57 S9        29.88S
OGALLALA       MOCLDY    64  57  78 NE6       29.89R
$$

NEZ005>010-023>029-035>040-094-200600-
NORTH CENTRAL NEBRASKA

CITY           SKY/WX    TMP DP  RH WIND       PRES   REMARKS
VALENTINE      PTCLDY    67  56  67 NE8       29.89R
AINSWORTH      CLEAR     63  56  79 N9        29.90R
BROKEN BOW     MOCLDY    71  61  70 SW3       29.86R
O`NEILL        PTCLDY    67  63  85 CALM      29.82R
ORD            PTCLDY    74  61  63 SW8       29.82R
THEDFORD       CLEAR     69  59  70 CALM      29.89S
$$

NEZ041-046>049-061>064-073>077-083>087-200600-
SOUTH CENTRAL NEBRASKA

CITY           SKY/WX    TMP DP  RH WIND       PRES   REMARKS
GRAND ISLAND   CLEAR     77  61  57 SW23G30   29.83S
AURORA         CLEAR     74  60  60 SW12G17   29.83S
HASTINGS       CLEAR     75  58  55 S13       29.85F
HEBRON         CLEAR     73  63  72 S12G17    29.88S
HOLDREGE       CLEAR     73  58  59 S13       29.88S
KEARNEY *      CLEAR     72  59  64 S15       29.86S
YORK           CLEAR     73  64  73 S14G20    29.83S
$$

NEZ011>018-030>034-042>045-200600-
NORTHEAST NEBRASKA

CITY           SKY/WX    TMP DP  RH WIND       PRES   REMARKS
NORFOLK        CLOUDY    74  65  73 W3        29.79R
ALBION         CLEAR     70  62  74 NW3       29.81R
BLAIR          CLEAR     74  69  83 S14G21    29.81S
COLUMBUS *     CLEAR     75  63  64 SW13G18   29.81R
FREMONT        CLEAR     76  68  76 S15G23    29.79S
TEKAMAH        MOCLDY    75  69  81 S13       29.76F
WAYNE          CLOUDY    74  66  77 N6        29.81R
$$

NEZ050>053-065>068-078-088>093-200600-
SOUTHEAST NEBRASKA

CITY           SKY/WX    TMP DP  RH WIND       PRES   REMARKS
LINCOLN        CLEAR     75  68  78 S14G24    29.83S
OMAHA EPPLEY   PTCLDY    74  67  78 S15       29.81S
BEATRICE       CLEAR     72  68  88 S14       29.87S
FALLS CITY     PTCLDY    71  68  90 S15       29.89F
NEBRASKA CITY    N/A     70  67  89 S15G22    29.86S
PLATTSMOUTH    CLEAR     71  66  85 S15G21    29.84S
$$

NEZ044-045-051>053-067-200600-
OMAHA AREA

CITY           SKY/WX    TMP DP  RH WIND       PRES   REMARKS
OMAHA EPPLEY   PTCLDY    74  67  78 S15       29.81S
BLAIR          CLEAR     74  69  83 S14G21    29.81S
FREMONT        CLEAR     76  68  76 S15G23    29.79S
MILLARD        CLEAR     74  69  82 S9        29.81S
OFFUTT AFB     CLEAR     73  72  99 S12G21    29.82R
PLATTSMOUTH    CLEAR     71  66  85 S15G21    29.84S
WAHOO          FAIR      75  67  76 S13       29.80S
$$



USA.gov is the U.S. government's official web portal to all federal, state and local government web resources and services.